Tracking 18816 objects as of 17-October-2017
HD Live streaming from Space Station
objects crossing your sky now

COSMOS 1481 DEB

Track COSMOS 1481 DEB now!


NORAD ID: 14192
Int'l Code: 1983-070E
Perigee: 2,313.2 km
Apogee: 37,617.7 km
Inclination: 67.8 °
Period: 708.9 minutes
Semi major axis: 26336 km
RCS: 2.531 m2 (large)
Launch date: July 8, 1983
Source: Commonwealth of Independent States (former USSR) (CIS)
Launch site: PLESETSK MISSILE AND SPACE COMPLEX (PKMTR)

Note: This is SATELLITE DEBRIS
aabbcc
Your satellite tracking list
Your tracking list is empty





NASA's NSSDC Master Catalog

Two Line Element Set (TLE):
1 14192U 83070E   17289.17267429  .00000550  00000-0  00000+0 0  9999
2 14192  67.8427  76.1377 6702602 355.4534   7.4882  2.03127167175300
Source of the keplerian elements: AFSPC